ONEWEB-0287, 49077

Orbit data source: Space-Track

ONEWEB-0287, 49077 is a payload satellite owned by One Web (NAA) (UK) in LEO that was launched on Sat, 21 Aug 2021 UTC via a SOYUZ-2-1B launch vehicle from the Tyuratam Missile And Space Complex (TTMTR). Payload-class satellites include a variety of spacecraft equipped with specific instruments for various scientific and technological missions. These include communications satellites like Starlink; space stations such as the ISS; scientific satellites like the Hubble; Earth observation satellites from companies like Planet Labs, Umbra, and HawkEye 360; GPS; miniature CubeSats for education and research; and military/defense satellites.

Loading next visibility...
Identifier
49077, 2021-075C
Orbit
LEO
Country
Flag of UKUK
Related business
Manufacturer
One Web
Mission
Operational Commercial Communications
Bus & Motor
ARROW, Unknown motor
Mass
148 kg wet, ~140 kg dry
Launch date (UTC)
2021-08-21 (5 years ago)
Launch vehicle
SOYUZ-2-1B
Launch site
Tyuratam Missile And Space Complex (TTMTR)
Object type
Payload
Rocket body
Debris
Shape & HBR
Trap Box + 2 Pan, 6.7 m
Radar Cross Section
3.464 m², Large (>1 m²)

Expand to show TLE details & history
Last TLE update: 21 hours ago

TLE from 21 hours ago
0 ONEWEB-0287
1 49077U 21075C   26175.22871298  .00000001  00000-0 -30553-4 0  9994
2 49077  87.9134   4.4646 0002201  82.5923 277.5459 13.17649454234551
Epoch: 2026-06-24T05:29Z
TLE epoch observation values (Epoch: 2026-06-24T05:29:20.801Z)
Latitude
0.00002°
Longitude
9.739°
Altitude
1,196.391 km
Speed
7.256 km/s
True Right ascension
00h 17m 51s
True Declination
0° 00' 00"
Sunlit
Object was in daylight at epoch
Visualization orbit readout
Latitude
Unknown
Longitude
Unknown
Altitude
Unknown
Speed
Unknown
Apparent Right ascension
Unknown
Apparent Declination
Unknown
Sunlit
N/A
Visualization observer readout
Local Sidereal Time
13:56:19
Azimuth
Unknown
Elevation
Unknown
Doppler factor
Unknown
Orbital elements
Apogee altitude
1,192.486 km
Perigee altitude
1,189.154 km
Semi-major axis
7,568.957 km
Eccentricity
0.00022
Inclination
87.9134°
RAAN
4.4646°
Arg. of periapsis
82.5923°
True anomaly
277.5209°
Mean anomaly
277.5459°
Eccentric anomaly
277.5334°
Mean motion
3.29601 °/min
Orbital period
109.22 mins
BSTAR
-0.000030553
Loading maneuver chart data...
Computing Atmospheric mass density...
Loading historical data...
Loading historical data...
Loading historical data...
Loading historical data...
Loading historical data...
Loading historical data...
Loading historical data...

Documentation

Showing up to 5 results
|